"Pseudo-MPEC" for C059RQ1

Created 2019 Mar 17 18:18:07 UT using Find_Orb

Click here for an explanation of pseudo-MPECs

 
 Astrometry: 
     C059RQ1  C2019 03 15.25150 10 44 14.69 +07 40 48.2    ~3F6m 19.1 GVNEOCP703
     C059RQ1  C2019 03 15.25717 10 44 14.99 +07 41 36.7    ~3F6m 19.4 GVNEOCP703
     C059RQ1  C2019 03 15.26283 10 44 15.21 +07 42 23.7    ~3F6m 19.8 GVNEOCP703
     C059RQ1  C2019 03 15.26850 10 44 15.41 +07 43 12.8    ~3F6m 19.2 GVNEOCP703
     C059RQ1  C2019 03 15.36119 10 44 19.35 +07 56 18.3    ~3F93 20.2 GVNEOCP703
     C059RQ1  C2019 03 15.36160 10 44 19.41 +07 56 21.4    ~3F93       VNEOCP703
     C059RQ1  C2019 03 15.36296 10 44 19.44 +07 56 33.2    ~3F93       VNEOCP703
     C059RQ1  C2019 03 15.36337 10 44 19.49 +07 56 36.4    ~3F93       VNEOCP703
     C059RQ1 KC2019 03 15.93073110 44 50.56 +09 15 54.9    ~3G2X 19.7 GVNEOCPC95
     C059RQ1 KC2019 03 15.94224310 44 51.14 +09 17 30.3    ~3G2X 18.8 GVNEOCPC95
     C059RQ1 KC2019 03 15.95375010 44 51.67 +09 19 05.9    ~3G2X 18.7 GVNEOCPC95
     C059RQ1 KC2019 03 166*5,ctOXlAstrometryTeYI/`KGBLXj_a`4r.8bl'IVUK+gq9RQcH21
     C059RQ1 KC2019 03 16OW;4XVuF(]^jP@9,u?k=6*ogGeYi(F*W$yl6UA\7Xt'.:unjn_-*H21
     C059RQ1 KC2019 03 165J+s\cr(y'I['VyjJt^:hx!MvXSuT80$C):aUB`\EvT',TqV(/KKH21
     C059RQ1 KC2019 03 16Y8CCq@'e'\.BsSMZJ[+d;+5Xg:prMc;p45Qyredacted;=ha_a;#V01
     C059RQ1 KC2019 03 16hv9#RKjlub?8WjLlAc/gJ(YmX`qmH_i;bAf,h;naT%QZqM`5\(7aV01
     C059RQ1 KC2019 03 165%0XtLT:XBV)d+5DVb_kxg)9QTmNer=E\v?.*Z@L6F/+xxb`]-9$V01
     C059RQ1 KC2019 03 160LGU/wt='T8SD^=xD;w,V4mI9^Uo(/clickS8\mkxBbYvgu9*s]yV01
     C059RQ1 KC2019 03 16RNhGWwTo3.=$,_A@5A-047*KjTHTm_fE3TFD,:?/1xop?5+:BO3$V01
     C059RQ1 KC2019 03 16mOS:N9nh2#S0sIOb.D+JsJMvYP.'l-Nv`BJS78e:kvgn%PI5'vS+L01
     C059RQ1 KC2019 03 16!Etw_pG8-9$^TCRYs.]b5Ypu7_F8_G83DQ)kjk^HmBjN[\rL,vGCL01
     C059RQ1 KC2019 03 16[242Ya=$._x3J4CPtsQp7a9kRt#f`shereF=ZcAh#HAj]:,ZD'TuL01
     C059RQ1 KC2019 03 16lk[YQ/Yniv62y8SD068K]w%Xv)y7FW)kmBu7EL'W%sdI)UbEEC_WL01
     C059RQ1 KC2019 03 16.90314510 45 43.18 +11 28 27.6    ~3GMI 19.2 VqNEOCPI93
     C059RQ1 KC2019 03 16.90880010 45 43.46 +11 29 12.8    ~3GMI 18.9 VqNEOCPI93
     C059RQ1 KC2019 03 16.91445310 45 43.70 +11 29 58.3    ~3GMI 18.9 VqNEOCPI93
     C059RQ1 KC2019 03 17.01997910 45 48.61 +11 44 01.3    ~3H13 19.7 GVNEOCPJ95
     C059RQ1 KC2019 03 17.02406010 45 48.84 +11 44 33.8    ~3H13 19.4 GVNEOCPJ95
     C059RQ1 KC2019 03 17.02822310 45 48.98 +11 45 07.1    ~3H13 19.2 GVNEOCPJ95
     C059RQ1 KC2019 03 17nY5d!7`l7fMHkF3;OB#uHr-YEOjV=Y$Pnh+`(RQn%y:LfU!.2P0hH21
     C059RQ1 KC2019 03 17$=%\GsJS3-+U0o\^J8G6hW$k)9OrqGwSnJW!8d,V@qforN5-g:E4H21
     C059RQ1 KC2019 03 17irXaiY8BMbS)518`_MnLA9:L'`5`h$X?GYWCa?wjtoY+-@D4hqV'H21
     C059RQ1  C2019 03 17.17116 10 45 58.17 +12 04 14.7    ~3H4X 19.2 GVNEOCPI52
     C059RQ1  C2019 03 17.17170 10 45 58.16 +12 04 19.2    ~3H4X 19.2 GVNEOCPI52
     C059RQ1  C2019 03 17.17194 10 45 58.15 +12 04 21.1    ~3H4X 19.8 GVNEOCPI52
     C059RQ1 KC2019 03 17:O(nn)NKM5D$Ys8#2:MJ(8`kdWnX`vLTTY-C$ev^;'2(O]dACU+UH36
     C059RQ1 KC2019 03 17Zx)ABa,x^D98bAnt#w1g/vJyA3Se]3A.:(:8@^,X'Lu*I`qhoGl3H36
     C059RQ1 KC2019 03 17gKYve6W\Oc;ODgexplanation$N7?yY4FKG8#GE;4pOd5kUmM*0hH36

Station data:
(703) Catalina Sky Survey  (N32.417006 W110.732640)  US/Arizona.  Observers
   B. M. Africano, E. J. Christensen, G. A. Farneth, D. C. Fuls, A. R. Gibbs,
   A. D. Grauer, H. Groeller, J. A. Johnson, R. A. Kowalski, S. M. Larson, G.
   J. Leonard, R. L. Seaman, F. C. Shelly. 0.68 m Schmidt + 10K CCD.
(C95) SATINO Remote Observatory, Haute Provence  (N43.932042 E5.712390)
   France.
(H21) Astronomical Research Observatory, Westfield  (N39.483057 W87.968270)
   US/Illinois. 0.76-m f/3.0 astrograph + CCD.
(H36) Sandlot Observatory, Scranton  (N38.797693 W95.706400)  US/Kansas.
   Observer G. Hug. 0.56-m reflector + CCD.
(I52) Steward Observatory, Mt. Lemmon Station  (N32.442547 W110.788920)
   US/Arizona.  Observers B. M. Africano, E. J. Christensen, G. A. Farneth,
   D. C. Fuls, A. R. Gibbs, A. D. Grauer, H. Groeller, J. A. Johnson, R. A.
   Kowalski, S. M. Larson, G. J. Leonard, R. L. Seaman, F. C. Shelly. 1.0-m
   reflector + CCD.
(I93) St Pardon de Conques  (N44.558710 W0.203000)  France.  Observer F.
   Losse. 0.40-m f/3.7 reflector + CCD.
(J95) Great Shefford  (N51.474969 W1.447003)  UK.  Observer P. Birtwhistle.
   0.40-m f/6.0 Schmidt-Cassegrain + CCD.
(L01) Višnjan Observatory, Tičan  (N45.290900 E13.749300)  Croatia.
   Observers K. Korlević, E. Pettarin. Measurer E. Pettarin. 1.0-m f/2.9
   reflector + CCD.
(V01) Mountainville Observatory, Alpine  (N40.448904 W111.760890)  US/Utah.

Orbital elements:  C059RQ1
   Perihelion 2019 Feb 3.629803 +/- 0.519 TT = 15:06:55 (JD 2458518.129803)
Epoch 2019 Mar 17.0 TT = JDT 2458559.5   Earth MOID: 0.2886   AutoNEOCP
M  13.43577667 +/- 0.6              (J2000 ecliptic)
n   0.32476946 +/- 0.011            Peri.  326.93124 +/- 0.42
a   2.09613503 +/- 0.0472           Node   170.81104 +/- 0.027
e   0.4134762 +/- 0.0117            Incl.   43.01717 +/- 0.39
P   3.03                   H 20.8   G  0.15   U  9.7  
q 1.22943300 +/- 0.00329    Q 2.96283705 +/- 0.0943
From 38 observations 2019 Mar. 15-17; mean residual 0".40
Residuals in arcseconds: 
190315 703  .22-  .22+    190316 H21  .31+  .12-    190317 J95  .12-  .10-    
190315 703  .67+  .52+    190316 V01  .25+  .82+    190317 J95  .44+  .22-    
190315 703  .37+  .59-    190316 V01  .02-  .07+    190317 J95  .39-  .19-    
190315 703  .22-  .33+    190316 V01  .47+  .31-    190317 H21  .02+  .24+    
190315 703  .66-  .03+    190316 V01  .50+  .02+    190317 H21  .16+  .16+    
190315 703  .04-  .34-    190316 V01  .25+  1.3+    190317 H21  .03+  .22+    
190315 703  .48-  .04-    190316 L01  .15-  .11-    190317 I52  .06+  .14-    
190315 703  .01-  .31-    190316 L01  .01+  .11-    190317 I52  .46-  .06+    
190315 C95  .92-  .11+    190316 L01  .11-  .03-    190317 I52  .76-  .04+    
190315 C95  .08+  .24-    190316 L01  .37-  .09-    190317 H36  1.4+  .88+    
190315 C95  .34+  .29-    190316 I93  .15-  .46+    190317 H36  .12+  .10-    
190316 H21  .17+  .13-    190316 I93  .13+  .17+    190317 H36  .22-  .71+    
190316 H21  .27+  .09-    190316 I93  .16-  .21+    

Ephemerides (geocentric):
Date (UTC) HH   RA              Dec         delta   r     elong  mag " sig PA
---- -- -- --  -------------   -----------  ------ ------ -----  --- ---- ---
2019 03 17 18  10 46 28.821   +13 20 18.35  .31624 1.2977 160.7 19.7 .141  37
2019 03 17 19  10 46 31.108   +13 25 42.05  .31649 1.2978 160.6 19.7 .142  40
2019 03 17 20  10 46 33.397   +13 31 05.21  .31674 1.2980 160.5 19.7 .142  44
2019 03 17 21  10 46 35.688   +13 36 27.83  .31699 1.2981 160.5 19.7 .144  47
2019 03 17 22  10 46 37.980   +13 41 49.89  .31724 1.2982 160.4 19.7 .146  51
2019 03 17 23  10 46 40.274   +13 47 11.41  .31749 1.2984 160.3 19.7 .148  55
2019 03 18 00  10 46 42.569   +13 52 32.38  .31774 1.2985 160.2 19.7 .151  58
2019 03 18 01  10 46 44.866   +13 57 52.80  .31799 1.2986 160.1 19.7 .155  62
2019 03 18 02  10 46 47.164   +14 03 12.67  .31825 1.2988 160.0 19.7 .159  65
2019 03 18 03  10 46 49.464   +14 08 31.98  .31850 1.2989 159.9 19.7 .164  69
2019 03 18 04  10 46 51.765   +14 13 50.74  .31876 1.2990 159.8 19.7 .170  72
2019 03 18 05  10 46 54.068   +14 19 08.95  .31902 1.2991 159.8 19.7 .176  75
2019 03 18 06  10 46 56.373   +14 24 26.60  .31927 1.2993 159.7 19.7 .183  78
2019 03 18 07  10 46 58.679   +14 29 43.69  .31953 1.2994 159.6 19.7 .191  81
2019 03 18 08  10 47 00.987   +14 35 00.23  .31979 1.2995 159.5 19.7 .199  83
2019 03 18 09  10 47 03.296   +14 40 16.21  .32005 1.2997 159.4 19.7 .208  86
2019 03 18 10  10 47 05.607   +14 45 31.64  .32032 1.2998 159.3 19.8 .217  88
2019 03 18 11  10 47 07.919   +14 50 46.50  .32058 1.2999 159.2 19.8 .227  91
2019 03 18 12  10 47 10.233   +14 56 00.80  .32084 1.3001 159.1 19.8 .238  93
2019 03 18 13  10 47 12.548   +15 01 14.55  .32111 1.3002 159.1 19.8 .249  95
2019 03 18 14  10 47 14.865   +15 06 27.73  .32137 1.3003 159.0 19.8 .260  96
2019 03 18 15  10 47 17.184   +15 11 40.34  .32164 1.3004 158.9 19.8 .272  98
2019 03 18 16  10 47 19.504   +15 16 52.40  .32191 1.3006 158.8 19.8 .284 100
2019 03 18 17  10 47 21.825   +15 22 03.89  .32217 1.3007 158.7 19.8 .297 101
2019 03 18 18  10 47 24.148   +15 27 14.82  .32244 1.3008 158.6 19.8 .310 103
2019 03 18 19  10 47 26.473   +15 32 25.18  .32271 1.3010 158.5 19.8 .324 104
2019 03 18 20  10 47 28.799   +15 37 34.97  .32299 1.3011 158.4 19.8 .338 105
2019 03 18 21  10 47 31.127   +15 42 44.20  .32326 1.3012 158.3 19.8 .353 107
2019 03 18 22  10 47 33.457   +15 47 52.86  .32353 1.3014 158.3 19.8 .368 108
2019 03 18 23  10 47 35.788   +15 53 00.96  .32380 1.3015 158.2 19.8 .383 109
2019 03 19 00  10 47 38.120   +15 58 08.48  .32408 1.3016 158.1 19.8 .399 110
2019 03 19 01  10 47 40.454   +16 03 15.44  .32435 1.3018 158.0 19.8 .415 111
2019 03 19 02  10 47 42.790   +16 08 21.82  .32463 1.3019 157.9 19.8 .432 112
2019 03 19 03  10 47 45.127   +16 13 27.64  .32491 1.3020 157.8 19.8 .449 113
2019 03 19 04  10 47 47.466   +16 18 32.89  .32519 1.3022 157.7 19.8 .466 113
2019 03 19 05  10 47 49.806   +16 23 37.56  .32547 1.3023 157.6 19.8 .484 114
2019 03 19 06  10 47 52.148   +16 28 41.66  .32575 1.3024 157.5 19.8 .502 115
2019 03 19 07  10 47 54.491   +16 33 45.19  .32603 1.3025 157.5 19.8 .520 116
2019 03 19 08  10 47 56.836   +16 38 48.15  .32631 1.3027 157.4 19.8 .539 116
2019 03 19 09  10 47 59.183   +16 43 50.53  .32659 1.3028 157.3 19.9 .558 117
2019 03 19 10  10 48 01.531   +16 48 52.34  .32688 1.3029 157.2 19.9 .577 118
2019 03 19 11  10 48 03.880   +16 53 53.58  .32716 1.3031 157.1 19.9 .597 118
2019 03 19 12  10 48 06.232   +16 58 54.24  .32745 1.3032 157.0 19.9 .617 119
2019 03 19 13  10 48 08.584   +17 03 54.32  .32773 1.3033 156.9 19.9 .638 119
2019 03 19 14  10 48 10.939   +17 08 53.83  .32802 1.3035 156.8 19.9 .659 120
2019 03 19 15  10 48 13.295   +17 13 52.77  .32831 1.3036 156.7 19.9 .680 120
2019 03 19 16  10 48 15.652   +17 18 51.13  .32860 1.3037 156.7 19.9 .702 121
2019 03 19 17  10 48 18.011   +17 23 48.91  .32889 1.3039 156.6 19.9 .724 121